Time,TemperatureF,DewpointF,PressureIn,WindDirection,WindDirectionDegrees,WindSpeedMPH,WindSpeedGustMPH,Humidity,HourlyPrecipIn,Conditions,Clouds,dailyrainin,SolarRadiationWatts/m^2,SoftwareType,DateUTC
2013-12-21 00:03:00,37.6,35.2,-100.00,SW,225,0.0,5.0,91,0.00,,,0.00,0.0,meteohub,2013-12-21 08:03:00,
2013-12-21 00:09:00,37.4,35.1,-100.00,SW,225,0.0,5.0,91,0.00,,,0.00,0.0,meteohub,2013-12-21 08:09:00,
2013-12-21 00:15:00,37.4,35.1,-100.00,SW,225,0.0,0.0,91,0.00,,,0.00,0.0,meteohub,2013-12-21 08:15:00,
2013-12-21 00:21:00,37.2,34.9,-100.00,SW,225,0.0,0.0,91,0.00,,,0.00,0.0,meteohub,2013-12-21 08:21:00,
2013-12-21 00:27:00,37.4,35.1,-100.00,SW,225,0.0,0.0,91,0.00,,,0.00,0.0,meteohub,2013-12-21 08:27:00,
2013-12-21 00:32:00,37.4,35.1,-100.00,SW,225,0.0,3.0,91,0.00,,,0.00,0.0,meteohub,2013-12-21 08:32:00,
2013-12-21 00:37:00,37.2,34.9,-100.00,SW,225,0.0,3.0,91,0.00,,,0.00,0.0,meteohub,2013-12-21 08:37:00,
2013-12-21 00:42:00,37.4,35.1,-100.00,SW,225,2.0,3.0,91,0.00,,,0.00,0.0,meteohub,2013-12-21 08:42:00,
2013-12-21 00:48:00,37.8,35.6,-100.00,SSW,207,0.0,1.0,92,0.00,,,0.00,0.0,meteohub,2013-12-21 08:48:00,
2013-12-21 00:54:00,37.8,35.6,-100.00,SSW,207,0.0,7.0,92,0.00,,,0.00,0.0,meteohub,2013-12-21 08:54:00,
2013-12-21 01:00:00,37.9,35.8,-100.00,SSW,207,0.0,7.0,92,0.00,,,0.00,0.0,meteohub,2013-12-21 09:00:00,
2013-12-21 01:06:00,38.3,36.1,-100.00,SSW,211,0.0,6.0,92,0.00,,,0.00,0.0,meteohub,2013-12-21 09:06:00,
2013-12-21 01:12:00,38.5,36.3,-100.00,SSW,211,1.0,6.0,92,0.00,,,0.00,0.0,meteohub,2013-12-21 09:12:00,
2013-12-21 01:17:00,38.7,36.5,-100.00,SSW,211,0.0,3.0,92,0.00,,,0.00,0.0,meteohub,2013-12-21 09:17:00,
2013-12-21 01:22:00,38.8,36.7,-100.00,SSW,211,0.0,3.0,92,0.00,,,0.00,0.0,meteohub,2013-12-21 09:22:00,
2013-12-21 01:27:00,39.4,37.6,-100.00,SSW,211,0.0,2.0,93,0.00,,,0.00,0.0,meteohub,2013-12-21 09:27:00,
2013-12-21 01:32:00,39.2,37.0,-100.00,SSW,211,0.0,2.0,92,0.00,,,0.00,0.0,meteohub,2013-12-21 09:32:00,
2013-12-21 01:37:00,39.2,37.0,-100.00,SSW,211,0.0,3.0,92,0.00,,,0.00,0.0,meteohub,2013-12-21 09:37:00,
2013-12-21 01:42:00,39.6,37.4,-100.00,SSW,211,0.0,3.0,92,0.00,,,0.00,0.0,meteohub,2013-12-21 09:42:00,
2013-12-21 01:47:00,39.6,37.4,-100.00,SSW,212,2.0,4.0,92,0.00,,,0.00,0.0,meteohub,2013-12-21 09:47:00,
2013-12-21 01:52:00,40.6,39.0,-100.00,SW,221,1.0,4.0,94,0.00,,,0.00,0.0,meteohub,2013-12-21 09:52:00,
2013-12-21 01:57:00,42.3,41.0,-100.00,SW,236,4.0,6.0,95,0.00,,,0.00,0.0,meteohub,2013-12-21 09:57:00,
2013-12-21 02:02:00,44.6,43.3,-100.00,SW,220,4.0,6.0,95,0.00,,,0.00,0.0,meteohub,2013-12-21 10:02:00,
2013-12-21 02:07:00,45.9,44.2,-100.00,SW,234,5.0,6.0,94,0.00,,,0.00,0.0,meteohub,2013-12-21 10:07:00,
2013-12-21 02:12:00,46.9,44.8,-100.00,WNW,289,4.0,6.0,92,0.00,,,0.00,0.0,meteohub,2013-12-21 10:12:00,
2013-12-21 02:17:00,48.4,45.5,-100.00,WSW,243,5.0,6.0,90,0.00,,,0.00,0.0,meteohub,2013-12-21 10:17:00,
2013-12-21 02:22:00,48.7,45.3,-100.00,West,274,1.0,6.0,88,0.00,,,0.00,0.0,meteohub,2013-12-21 10:22:00,
2013-12-21 02:27:00,48.6,44.8,-100.00,SW,221,1.0,6.0,87,0.00,,,0.00,0.0,meteohub,2013-12-21 10:27:00,
2013-12-21 02:32:00,48.9,45.5,-100.00,West,273,3.0,6.0,88,0.00,,,0.00,0.0,meteohub,2013-12-21 10:32:00,
2013-12-21 02:37:00,49.5,45.5,-100.00,SW,234,4.0,6.0,86,0.00,,,0.00,0.0,meteohub,2013-12-21 10:37:00,
2013-12-21 02:43:00,50.5,47.1,-100.00,SSW,213,6.0,7.0,88,0.00,,,0.00,0.0,meteohub,2013-12-21 10:43:00,
2013-12-21 02:49:00,51.6,46.9,-100.00,WSW,245,4.0,7.0,84,0.00,,,0.00,0.0,meteohub,2013-12-21 10:49:00,
2013-12-21 02:55:00,51.4,46.4,-100.00,WSW,238,6.0,9.0,83,0.00,,,0.00,0.0,meteohub,2013-12-21 10:55:00,
2013-12-21 03:01:00,51.1,46.8,-100.00,WSW,252,4.0,9.0,85,0.00,,,0.00,0.0,meteohub,2013-12-21 11:01:00,
2013-12-21 03:07:00,50.5,45.9,-100.00,SW,231,5.0,8.0,84,0.00,,,0.00,0.0,meteohub,2013-12-21 11:07:00,
2013-12-21 03:12:00,50.2,46.2,-100.00,SW,230,5.0,8.0,86,0.00,,,0.00,0.0,meteohub,2013-12-21 11:12:00,
2013-12-21 03:17:00,50.7,46.8,-100.00,WSW,250,2.0,9.0,86,0.00,,,0.00,0.0,meteohub,2013-12-21 11:17:00,
2013-12-21 03:22:00,50.7,46.4,-100.00,WSW,250,4.0,9.0,85,0.00,,,0.00,0.0,meteohub,2013-12-21 11:22:00,
2013-12-21 03:27:00,50.2,46.2,-100.00,WSW,257,1.0,9.0,86,0.00,,,0.00,0.0,meteohub,2013-12-21 11:27:00,
2013-12-21 03:32:00,49.6,45.9,-100.00,SW,232,2.0,9.0,87,0.00,,,0.00,0.0,meteohub,2013-12-21 11:32:00,
2013-12-21 03:37:00,49.6,46.2,-100.00,West,261,4.0,8.0,88,0.00,,,0.00,0.0,meteohub,2013-12-21 11:37:00,
2013-12-21 03:42:00,49.5,46.0,-100.00,WSW,250,4.0,8.0,88,0.00,,,0.00,0.0,meteohub,2013-12-21 11:42:00,
2013-12-21 03:47:00,49.6,46.2,-100.00,WSW,254,2.0,7.0,88,0.00,,,0.00,0.0,meteohub,2013-12-21 11:47:00,
2013-12-21 03:52:00,49.8,46.8,-100.00,WSW,255,2.0,7.0,89,0.00,,,0.00,0.0,meteohub,2013-12-21 11:52:00,
2013-12-21 03:57:00,49.6,45.9,-100.00,SW,234,2.0,5.0,87,0.00,,,0.00,0.0,meteohub,2013-12-21 11:57:00,
2013-12-21 04:02:00,49.6,46.2,-100.00,SW,234,0.0,5.0,88,0.00,,,0.00,0.0,meteohub,2013-12-21 12:02:00,
2013-12-21 04:07:00,48.7,45.0,-100.00,SW,234,0.0,5.0,87,0.00,,,0.00,0.0,meteohub,2013-12-21 12:07:00,
2013-12-21 04:12:00,48.2,44.2,-100.00,SW,234,0.0,5.0,86,0.00,,,0.00,0.0,meteohub,2013-12-21 12:12:00,
2013-12-21 04:17:00,47.8,44.2,-100.00,SW,234,0.0,2.0,87,0.00,,,0.00,0.0,meteohub,2013-12-21 12:17:00,
2013-12-21 04:22:00,47.1,43.5,-100.00,SW,234,0.0,2.0,87,0.00,,,0.00,0.0,meteohub,2013-12-21 12:22:00,
2013-12-21 04:27:00,46.8,43.2,-100.00,SW,234,0.0,1.0,87,0.00,,,0.00,0.0,meteohub,2013-12-21 12:27:00,
2013-12-21 04:32:00,46.2,42.8,-100.00,SW,234,0.0,1.0,88,0.00,,,0.00,0.0,meteohub,2013-12-21 12:32:00,
2013-12-21 04:37:00,45.9,42.8,-100.00,SW,234,0.0,2.0,89,0.00,,,0.00,0.0,meteohub,2013-12-21 12:37:00,
2013-12-21 04:42:00,45.3,42.3,-100.00,SW,234,0.0,2.0,89,0.00,,,0.00,0.0,meteohub,2013-12-21 12:42:00,
2013-12-21 04:47:00,45.1,42.1,-100.00,SW,234,0.0,2.0,89,0.00,,,0.00,0.0,meteohub,2013-12-21 12:47:00,
2013-12-21 04:52:00,44.8,42.1,-100.00,SW,234,0.0,2.0,90,0.00,,,0.00,0.0,meteohub,2013-12-21 12:52:00,
2013-12-21 04:57:00,44.4,41.7,-100.00,SW,234,0.0,3.0,90,0.00,,,0.00,0.0,meteohub,2013-12-21 12:57:00,
2013-12-21 05:02:00,44.1,41.4,-100.00,SW,234,0.0,3.0,90,0.00,,,0.00,0.0,meteohub,2013-12-21 13:02:00,
2013-12-21 05:07:00,43.5,40.8,-100.00,SW,234,0.0,3.0,90,0.00,,,0.00,0.0,meteohub,2013-12-21 13:07:00,
2013-12-21 05:12:00,43.2,40.6,-100.00,SE,140,1.0,3.0,91,0.00,,,0.00,0.0,meteohub,2013-12-21 13:12:00,
2013-12-21 05:17:00,43.0,40.5,-100.00,SE,140,0.0,3.0,91,0.00,,,0.00,0.0,meteohub,2013-12-21 13:17:00,
2013-12-21 05:23:00,42.6,40.5,-100.00,SE,140,0.0,3.0,92,0.00,,,0.00,0.0,meteohub,2013-12-21 13:23:00,
2013-12-21 05:29:00,42.3,40.1,-100.00,SE,140,0.0,3.0,92,0.00,,,0.00,0.0,meteohub,2013-12-21 13:29:00,
2013-12-21 05:35:00,42.3,40.1,-100.00,SE,140,0.0,2.0,92,0.00,,,0.00,0.0,meteohub,2013-12-21 13:35:00,
2013-12-21 05:41:00,41.7,39.6,-100.00,SE,140,2.0,2.0,92,0.00,,,0.00,0.0,meteohub,2013-12-21 13:41:00,
2013-12-21 05:47:00,41.7,39.9,-100.00,SE,140,4.0,4.0,93,0.00,,,0.00,0.0,meteohub,2013-12-21 13:47:00,
2013-12-21 05:52:00,41.7,39.9,-100.00,SE,135,0.0,4.0,93,0.00,,,0.00,0.0,meteohub,2013-12-21 13:52:00,
2013-12-21 05:57:00,41.7,39.9,-100.00,West,279,0.0,5.0,93,0.00,,,0.00,0.0,meteohub,2013-12-21 13:57:00,
2013-12-21 06:02:00,41.7,39.9,-100.00,East,93,2.0,5.0,93,0.00,,,0.00,0.0,meteohub,2013-12-21 14:02:00,
2013-12-21 06:07:00,41.7,40.1,-100.00,East,89,2.0,5.0,94,0.00,,,0.00,0.0,meteohub,2013-12-21 14:07:00,
2013-12-21 06:12:00,42.1,40.5,-100.00,East,89,1.0,5.0,94,0.00,,,0.00,0.0,meteohub,2013-12-21 14:12:00,
2013-12-21 06:17:00,42.3,40.6,-100.00,East,89,0.0,5.0,94,0.00,,,0.00,0.0,meteohub,2013-12-21 14:17:00,
2013-12-21 06:22:00,41.7,39.9,-100.00,East,89,0.0,4.0,93,0.00,,,0.00,0.0,meteohub,2013-12-21 14:22:00,
2013-12-21 06:27:00,41.5,39.9,-100.00,East,89,0.0,4.0,94,0.00,,,0.00,0.0,meteohub,2013-12-21 14:27:00,
2013-12-21 06:33:00,41.5,39.9,-100.00,East,89,0.0,2.0,94,0.00,,,0.00,0.0,meteohub,2013-12-21 14:33:00,
2013-12-21 06:39:00,41.4,39.7,-100.00,East,89,1.0,2.0,94,0.00,,,0.00,0.0,meteohub,2013-12-21 14:39:00,
2013-12-21 06:45:00,41.4,39.7,-100.00,East,89,0.0,2.0,94,0.00,,,0.00,0.0,meteohub,2013-12-21 14:45:00,
2013-12-21 06:51:00,41.0,39.4,-100.00,East,89,0.0,3.0,94,0.00,,,0.00,0.0,meteohub,2013-12-21 14:51:00,
2013-12-21 06:57:00,40.6,39.0,-100.00,East,89,0.0,3.0,94,0.00,,,0.00,0.0,meteohub,2013-12-21 14:57:00,
2013-12-21 07:02:00,40.5,38.8,-100.00,East,89,0.0,3.0,94,0.00,,,0.00,0.0,meteohub,2013-12-21 15:02:00,
2013-12-21 07:07:00,40.3,38.7,-100.00,East,89,0.0,2.0,94,0.00,,,0.00,0.0,meteohub,2013-12-21 15:07:00,
2013-12-21 07:12:00,40.5,38.8,-100.00,East,89,0.0,2.0,94,0.00,,,0.00,0.0,meteohub,2013-12-21 15:12:00,
2013-12-21 07:17:00,40.3,38.7,-100.00,East,89,0.0,2.0,94,0.00,,,0.00,0.0,meteohub,2013-12-21 15:17:00,
2013-12-21 07:22:00,40.1,38.5,-100.00,East,89,1.0,2.0,94,0.00,,,0.00,0.0,meteohub,2013-12-21 15:22:00,
2013-12-21 07:28:00,39.7,38.1,-100.00,North,355,0.0,4.0,94,0.00,,,0.00,0.0,meteohub,2013-12-21 15:28:00,
2013-12-21 07:34:00,39.6,37.9,-100.00,North,355,0.0,4.0,94,0.00,,,0.00,5.0,meteohub,2013-12-21 15:34:00,
2013-12-21 07:40:00,39.6,38.3,-100.00,North,355,0.0,4.0,95,0.00,,,0.00,7.0,meteohub,2013-12-21 15:40:00,
2013-12-21 07:47:00,39.4,37.8,-100.00,NNE,26,0.0,2.0,94,0.00,,,0.00,9.0,meteohub,2013-12-21 15:47:00,
2013-12-21 07:52:00,39.4,38.1,-100.00,NNE,26,0.0,2.0,95,0.00,,,0.00,11.0,meteohub,2013-12-21 15:52:00,
2013-12-21 07:57:00,39.4,38.1,-100.00,NNE,26,0.0,2.0,95,0.00,,,0.00,11.0,meteohub,2013-12-21 15:57:00,
2013-12-21 08:02:00,39.4,38.1,-100.00,NNE,26,0.0,2.0,95,0.00,,,0.00,12.0,meteohub,2013-12-21 16:02:00,
2013-12-21 08:07:00,39.4,38.1,-100.00,NNE,26,0.0,1.0,95,0.00,,,0.00,14.0,meteohub,2013-12-21 16:07:00,
2013-12-21 08:12:00,39.4,38.1,-100.00,NNE,26,0.0,1.0,95,0.00,,,0.00,14.0,meteohub,2013-12-21 16:12:00,
2013-12-21 08:17:00,39.6,38.3,-100.00,NNE,26,0.0,2.0,95,0.00,,,0.00,16.0,meteohub,2013-12-21 16:17:00,
2013-12-21 08:22:00,39.6,38.3,-100.00,NNE,26,0.0,2.0,95,0.00,,,0.00,16.0,meteohub,2013-12-21 16:22:00,
2013-12-21 08:27:00,39.7,38.5,-100.00,NNE,26,0.0,2.0,95,0.00,,,0.00,18.0,meteohub,2013-12-21 16:27:00,
2013-12-21 08:32:00,39.7,38.5,-100.00,NNE,26,0.0,2.0,95,0.00,,,0.00,19.0,meteohub,2013-12-21 16:32:00,
2013-12-21 08:37:00,39.6,38.3,-100.00,NNE,26,0.0,1.0,95,0.00,,,0.00,21.0,meteohub,2013-12-21 16:37:00,
2013-12-21 08:42:00,39.6,38.3,-100.00,NNE,26,0.0,1.0,95,0.00,,,0.00,21.0,meteohub,2013-12-21 16:42:00,
2013-12-21 08:47:00,39.6,38.3,-100.00,NNE,26,0.0,0.0,95,0.00,,,0.00,23.0,meteohub,2013-12-21 16:47:00,
2013-12-21 08:52:00,39.6,38.3,-100.00,NNE,26,0.0,0.0,95,0.00,,,0.00,26.0,meteohub,2013-12-21 16:52:00,
2013-12-21 08:57:00,39.7,38.5,-100.00,NNE,26,0.0,0.0,95,0.00,,,0.00,95.0,meteohub,2013-12-21 16:57:00,
2013-12-21 09:02:00,40.3,39.2,-100.00,NNE,26,0.0,0.0,96,0.00,,,0.00,200.0,meteohub,2013-12-21 17:02:00,
2013-12-21 09:07:00,41.0,39.9,-100.00,NNE,26,0.0,0.0,96,0.00,,,0.00,213.0,meteohub,2013-12-21 17:07:00,
2013-12-21 09:12:00,42.1,41.0,-100.00,NNE,26,0.0,0.0,96,0.00,,,0.00,223.0,meteohub,2013-12-21 17:12:00,
2013-12-21 09:17:00,42.8,41.7,-100.00,NNE,26,0.0,0.0,96,0.00,,,0.00,236.0,meteohub,2013-12-21 17:17:00,
2013-12-21 09:22:00,43.9,43.2,-100.00,NNE,26,0.0,0.0,97,0.00,,,0.00,246.0,meteohub,2013-12-21 17:22:00,
2013-12-21 09:27:00,44.4,43.7,-100.00,NNE,26,0.0,0.0,97,0.00,,,0.00,258.0,meteohub,2013-12-21 17:27:00,
2013-12-21 09:32:00,45.1,44.4,-100.00,NNE,26,0.0,0.0,97,0.00,,,0.00,267.0,meteohub,2013-12-21 17:32:00,
2013-12-21 09:37:00,45.9,45.1,-100.00,NNE,26,0.0,1.0,97,0.00,,,0.00,274.0,meteohub,2013-12-21 17:37:00,
2013-12-21 09:42:00,46.9,45.9,-100.00,NNE,26,0.0,1.0,96,0.00,,,0.00,169.0,meteohub,2013-12-21 17:42:00,
2013-12-21 09:47:00,47.7,46.2,-100.00,NNE,26,0.0,1.0,95,0.00,,,0.00,127.0,meteohub,2013-12-21 17:47:00,
2013-12-21 09:52:00,48.4,46.8,-100.00,NNE,26,0.0,1.0,94,0.00,,,0.00,109.0,meteohub,2013-12-21 17:52:00,
2013-12-21 09:57:00,48.7,46.8,-100.00,NNE,26,0.0,1.0,93,0.00,,,0.00,111.0,meteohub,2013-12-21 17:57:00,
2013-12-21 10:02:00,49.3,47.1,-100.00,NNE,26,0.0,1.0,92,0.00,,,0.00,109.0,meteohub,2013-12-21 18:02:00,
2013-12-21 10:07:00,49.8,47.3,-100.00,NNE,26,0.0,1.0,91,0.00,,,0.00,148.0,meteohub,2013-12-21 18:07:00,
2013-12-21 10:12:00,50.4,47.8,-100.00,NNE,26,0.0,1.0,91,0.00,,,0.00,230.0,meteohub,2013-12-21 18:12:00,
2013-12-21 10:17:00,50.7,47.8,-100.00,NNE,26,0.0,1.0,90,0.00,,,0.00,202.0,meteohub,2013-12-21 18:17:00,
2013-12-21 10:22:00,51.4,48.4,-100.00,NNE,26,0.0,1.0,89,0.00,,,0.00,39.0,meteohub,2013-12-21 18:22:00,
2013-12-21 10:27:00,52.2,49.1,-100.00,NNE,26,1.0,1.0,89,0.00,,,0.00,237.0,meteohub,2013-12-21 18:27:00,
2013-12-21 10:32:00,52.9,49.5,-100.00,NNE,26,0.0,1.0,88,0.00,,,0.00,322.0,meteohub,2013-12-21 18:32:00,
2013-12-21 10:37:00,53.4,49.6,-100.00,NNE,26,0.0,1.0,87,0.00,,,0.00,404.0,meteohub,2013-12-21 18:37:00,
2013-12-21 10:42:00,54.3,49.8,-100.00,NNE,26,0.0,1.0,85,0.00,,,0.00,415.0,meteohub,2013-12-21 18:42:00,
2013-12-21 10:47:00,55.0,50.0,-100.00,NNE,26,0.0,1.0,83,0.00,,,0.00,422.0,meteohub,2013-12-21 18:47:00,
2013-12-21 10:52:00,55.9,50.5,-100.00,NNE,26,0.0,1.0,82,0.00,,,0.00,424.0,meteohub,2013-12-21 18:52:00,
2013-12-21 10:57:00,56.7,50.5,-100.00,East,79,0.0,1.0,80,0.00,,,0.00,374.0,meteohub,2013-12-21 18:57:00,
2013-12-21 11:02:00,57.4,49.8,-100.00,ESE,122,0.0,1.0,76,0.00,,,0.00,403.0,meteohub,2013-12-21 19:02:00,
2013-12-21 11:07:00,58.3,50.0,-100.00,East,98,2.0,7.0,74,0.00,,,0.00,260.0,meteohub,2013-12-21 19:07:00,
2013-12-21 11:12:00,59.0,50.0,-100.00,East,94,0.0,7.0,72,0.00,,,0.00,334.0,meteohub,2013-12-21 19:12:00,
2013-12-21 11:17:00,59.5,50.2,-100.00,ENE,75,2.0,7.0,71,0.00,,,0.00,295.0,meteohub,2013-12-21 19:17:00,
2013-12-21 11:22:00,59.9,50.2,-100.00,ENE,76,0.0,7.0,70,0.00,,,0.00,427.0,meteohub,2013-12-21 19:22:00,
2013-12-21 11:27:00,60.4,50.2,-100.00,East,88,0.0,5.0,69,0.00,,,0.00,464.0,meteohub,2013-12-21 19:27:00,
2013-12-21 11:32:00,61.0,50.4,-100.00,East,88,1.0,5.0,68,0.00,,,0.00,469.0,meteohub,2013-12-21 19:32:00,
2013-12-21 11:37:00,61.2,50.5,-100.00,ESE,104,2.0,3.0,68,0.00,,,0.00,471.0,meteohub,2013-12-21 19:37:00,
2013-12-21 11:42:00,61.3,50.4,-100.00,ESE,104,0.0,3.0,67,0.00,,,0.00,476.0,meteohub,2013-12-21 19:42:00,
2013-12-21 11:47:00,61.5,50.0,-100.00,ESE,104,0.0,5.0,66,0.00,,,0.00,478.0,meteohub,2013-12-21 19:47:00,
2013-12-21 11:52:00,61.7,49.8,-100.00,ESE,104,0.0,5.0,65,0.00,,,0.00,480.0,meteohub,2013-12-21 19:52:00,
2013-12-21 11:57:00,62.1,50.2,-100.00,ESE,104,0.0,4.0,65,0.00,,,0.00,482.0,meteohub,2013-12-21 19:57:00,
2013-12-21 12:02:00,62.4,49.6,-100.00,ESE,104,1.0,4.0,63,0.00,,,0.00,483.0,meteohub,2013-12-21 20:02:00,
2013-12-21 12:07:00,62.6,50.7,-100.00,ESE,104,1.0,4.0,65,0.00,,,0.00,483.0,meteohub,2013-12-21 20:07:00,
2013-12-21 12:12:00,63.0,51.1,-100.00,ESE,104,0.0,4.0,65,0.00,,,0.00,485.0,meteohub,2013-12-21 20:12:00,
2013-12-21 12:17:00,63.1,50.4,-100.00,ESE,104,0.0,1.0,63,0.00,,,0.00,483.0,meteohub,2013-12-21 20:17:00,
2013-12-21 12:22:00,63.1,50.4,-100.00,ESE,104,1.0,1.0,63,0.00,,,0.00,483.0,meteohub,2013-12-21 20:22:00,
2013-12-21 12:28:00,63.5,50.7,-100.00,ESE,104,0.0,2.0,63,0.00,,,0.00,482.0,meteohub,2013-12-21 20:28:00,
2013-12-21 12:34:00,63.9,50.2,-100.00,ESE,104,0.0,2.0,61,0.00,,,0.00,480.0,meteohub,2013-12-21 20:34:00,
2013-12-21 12:41:00,64.4,51.1,-100.00,ESE,104,1.0,2.0,62,0.00,,,0.00,476.0,meteohub,2013-12-21 20:41:00,
2013-12-21 12:47:00,64.4,50.7,-100.00,ESE,104,0.0,2.0,61,0.00,,,0.00,475.0,meteohub,2013-12-21 20:47:00,
2013-12-21 12:52:00,64.6,50.4,-100.00,SSW,213,0.0,2.0,60,0.00,,,0.00,469.0,meteohub,2013-12-21 20:52:00,
2013-12-21 12:57:00,64.6,50.4,-100.00,South,182,0.0,5.0,60,0.00,,,0.00,468.0,meteohub,2013-12-21 20:57:00,
2013-12-21 13:02:00,64.9,50.2,-100.00,SSE,165,0.0,5.0,59,0.00,,,0.00,462.0,meteohub,2013-12-21 21:02:00,
2013-12-21 13:07:00,65.7,50.9,-100.00,SSW,205,0.0,5.0,59,0.00,,,0.00,459.0,meteohub,2013-12-21 21:07:00,
2013-12-21 13:12:00,66.0,50.4,-100.00,SSE,156,0.0,5.0,57,0.00,,,0.00,455.0,meteohub,2013-12-21 21:12:00,
2013-12-21 13:17:00,66.0,50.9,-100.00,SSE,156,0.0,3.0,58,0.00,,,0.00,450.0,meteohub,2013-12-21 21:17:00,
2013-12-21 13:22:00,66.0,50.4,-100.00,SSE,156,0.0,3.0,57,0.00,,,0.00,445.0,meteohub,2013-12-21 21:22:00,
2013-12-21 13:27:00,66.0,51.3,-100.00,SSE,159,0.0,3.0,59,0.00,,,0.00,441.0,meteohub,2013-12-21 21:27:00,
2013-12-21 13:32:00,66.6,52.2,-100.00,SSE,159,0.0,3.0,60,0.00,,,0.00,434.0,meteohub,2013-12-21 21:32:00,
2013-12-21 13:37:00,66.7,52.0,-100.00,SSE,159,0.0,2.0,59,0.00,,,0.00,429.0,meteohub,2013-12-21 21:37:00,
2013-12-21 13:42:00,67.3,52.0,-100.00,SSE,159,0.0,2.0,58,0.00,,,0.00,420.0,meteohub,2013-12-21 21:42:00,
2013-12-21 13:47:00,67.3,52.0,-100.00,SSE,159,0.0,1.0,58,0.00,,,0.00,413.0,meteohub,2013-12-21 21:47:00,
2013-12-21 13:52:00,66.9,52.2,-100.00,SSE,159,0.0,1.0,59,0.00,,,0.00,404.0,meteohub,2013-12-21 21:52:00,
2013-12-21 13:57:00,67.3,51.4,-100.00,SSE,159,0.0,2.0,57,0.00,,,0.00,396.0,meteohub,2013-12-21 21:57:00,
2013-12-21 14:02:00,67.6,51.4,-100.00,SSE,159,0.0,2.0,56,0.00,,,0.00,388.0,meteohub,2013-12-21 22:02:00,
2013-12-21 14:07:00,67.8,50.5,-100.00,SSE,159,0.0,2.0,54,0.00,,,0.00,380.0,meteohub,2013-12-21 22:07:00,
2013-12-21 14:12:00,68.2,51.4,-100.00,SSE,159,0.0,2.0,55,0.00,,,0.00,371.0,meteohub,2013-12-21 22:12:00,
2013-12-21 14:17:00,67.8,51.1,-100.00,SSE,159,0.0,1.0,55,0.00,,,0.00,360.0,meteohub,2013-12-21 22:17:00,
2013-12-21 14:22:00,67.8,51.6,-100.00,SSE,159,0.0,1.0,56,0.00,,,0.00,350.0,meteohub,2013-12-21 22:22:00,
2013-12-21 14:27:00,67.6,50.9,-100.00,SSE,159,0.0,1.0,55,0.00,,,0.00,341.0,meteohub,2013-12-21 22:27:00,
2013-12-21 14:32:00,67.6,50.9,-100.00,SSE,159,0.0,1.0,55,0.00,,,0.00,330.0,meteohub,2013-12-21 22:32:00,
2013-12-21 14:37:00,67.3,51.4,-100.00,SSE,159,0.0,3.0,57,0.00,,,0.00,320.0,meteohub,2013-12-21 22:37:00,
2013-12-21 14:42:00,67.3,51.1,-100.00,SSE,159,0.0,3.0,56,0.00,,,0.00,311.0,meteohub,2013-12-21 22:42:00,
2013-12-21 14:47:00,66.4,50.7,-100.00,SSE,159,0.0,1.0,57,0.00,,,0.00,299.0,meteohub,2013-12-21 22:47:00,
2013-12-21 14:52:00,66.0,50.9,-100.00,SSE,159,0.0,1.0,58,0.00,,,0.00,287.0,meteohub,2013-12-21 22:52:00,
2013-12-21 14:57:00,66.0,50.9,-100.00,SSE,159,1.0,1.0,58,0.00,,,0.00,276.0,meteohub,2013-12-21 22:57:00,
2013-12-21 15:02:00,65.7,50.9,-100.00,SW,221,2.0,2.0,59,0.00,,,0.00,264.0,meteohub,2013-12-21 23:02:00,
2013-12-21 15:07:00,64.2,50.5,-100.00,WSW,244,0.0,4.0,61,0.00,,,0.00,248.0,meteohub,2013-12-21 23:07:00,
2013-12-21 15:12:00,63.7,50.4,-100.00,WSW,244,0.0,4.0,62,0.00,,,0.00,144.0,meteohub,2013-12-21 23:12:00,
2013-12-21 15:17:00,63.1,50.4,-100.00,WSW,244,0.0,5.0,63,0.00,,,0.00,221.0,meteohub,2013-12-21 23:17:00,
2013-12-21 15:22:00,62.8,50.4,-100.00,WSW,244,0.0,5.0,64,0.00,,,0.00,54.0,meteohub,2013-12-21 23:22:00,
2013-12-21 15:27:00,62.2,50.4,-100.00,WSW,244,0.0,4.0,65,0.00,,,0.00,70.0,meteohub,2013-12-21 23:27:00,
2013-12-21 15:32:00,61.7,50.2,-100.00,WSW,244,1.0,4.0,66,0.00,,,0.00,23.0,meteohub,2013-12-21 23:32:00,
2013-12-21 15:37:00,61.2,50.5,-100.00,WSW,244,0.0,2.0,68,0.00,,,0.00,21.0,meteohub,2013-12-21 23:37:00,
2013-12-21 15:42:00,60.6,50.0,-100.00,WSW,244,0.0,2.0,68,0.00,,,0.00,21.0,meteohub,2013-12-21 23:42:00,
2013-12-21 15:47:00,60.4,50.2,-100.00,WSW,244,0.0,2.0,69,0.00,,,0.00,19.0,meteohub,2013-12-21 23:47:00,
2013-12-21 15:52:00,60.3,50.4,-100.00,WSW,244,0.0,2.0,70,0.00,,,0.00,19.0,meteohub,2013-12-21 23:52:00,
2013-12-21 15:57:00,60.1,50.2,-100.00,WSW,244,0.0,1.0,70,0.00,,,0.00,18.0,meteohub,2013-12-21 23:57:00,
2013-12-21 16:02:00,59.5,50.2,-100.00,WSW,244,1.0,1.0,71,0.00,,,0.00,18.0,meteohub,2013-12-22 00:02:00,
2013-12-21 16:07:00,59.4,50.0,-100.00,WSW,244,0.0,1.0,71,0.00,,,0.00,16.0,meteohub,2013-12-22 00:07:00,
2013-12-21 16:12:00,59.0,50.0,-100.00,WSW,244,0.0,1.0,72,0.00,,,0.00,16.0,meteohub,2013-12-22 00:12:00,
2013-12-21 16:17:00,58.6,50.0,-100.00,WSW,244,0.0,4.0,73,0.00,,,0.00,14.0,meteohub,2013-12-22 00:17:00,
2013-12-21 16:22:00,58.5,49.8,-100.00,WSW,244,0.0,4.0,73,0.00,,,0.00,12.0,meteohub,2013-12-22 00:22:00,
2013-12-21 16:27:00,58.1,49.5,-100.00,WSW,244,0.0,1.0,73,0.00,,,0.00,12.0,meteohub,2013-12-22 00:27:00,
2013-12-21 16:32:00,57.7,49.1,-100.00,WSW,244,0.0,1.0,73,0.00,,,0.00,11.0,meteohub,2013-12-22 00:32:00,
2013-12-21 16:37:00,57.0,48.4,-100.00,WSW,244,0.0,0.0,73,0.00,,,0.00,9.0,meteohub,2013-12-22 00:37:00,
2013-12-21 16:42:00,56.5,48.4,-100.00,WSW,244,0.0,0.0,74,0.00,,,0.00,7.0,meteohub,2013-12-22 00:42:00,
2013-12-21 16:47:00,55.8,47.7,-100.00,WSW,244,0.0,0.0,74,0.00,,,0.00,5.0,meteohub,2013-12-22 00:47:00,
2013-12-21 16:52:00,55.2,48.2,-100.00,WSW,244,0.0,0.0,77,0.00,,,0.00,5.0,meteohub,2013-12-22 00:52:00,
2013-12-21 16:57:00,54.7,47.7,-100.00,WSW,244,0.0,1.0,77,0.00,,,0.00,0.0,meteohub,2013-12-22 00:57:00,
2013-12-21 17:02:00,54.3,48.0,-100.00,WSW,244,0.0,1.0,79,0.00,,,0.00,0.0,meteohub,2013-12-22 01:02:00,
2013-12-21 17:07:00,54.0,47.3,-100.00,WSW,244,0.0,1.0,78,0.00,,,0.00,0.0,meteohub,2013-12-22 01:07:00,
2013-12-21 17:12:00,53.2,46.9,-100.00,WSW,244,0.0,1.0,79,0.00,,,0.00,0.0,meteohub,2013-12-22 01:12:00,
2013-12-21 17:17:00,53.1,47.7,-100.00,WSW,244,0.0,0.0,82,0.00,,,0.00,0.0,meteohub,2013-12-22 01:17:00,
2013-12-21 17:22:00,52.7,47.1,-100.00,WSW,244,0.0,0.0,81,0.00,,,0.00,0.0,meteohub,2013-12-22 01:22:00,
2013-12-21 17:27:00,52.2,46.8,-100.00,WSW,244,0.0,0.0,82,0.00,,,0.00,0.0,meteohub,2013-12-22 01:27:00,
2013-12-21 17:32:00,52.0,46.9,-100.00,WSW,244,0.0,0.0,83,0.00,,,0.00,0.0,meteohub,2013-12-22 01:32:00,
2013-12-21 17:37:00,51.6,46.6,-100.00,WSW,244,0.0,1.0,83,0.00,,,0.00,0.0,meteohub,2013-12-22 01:37:00,
2013-12-21 17:42:00,51.1,46.4,-100.00,WSW,244,0.0,1.0,84,0.00,,,0.00,0.0,meteohub,2013-12-22 01:42:00,
2013-12-21 17:47:00,50.5,46.2,-100.00,WSW,244,0.0,1.0,85,0.00,,,0.00,0.0,meteohub,2013-12-22 01:47:00,
2013-12-21 17:52:00,50.4,46.4,-100.00,WSW,244,0.0,1.0,86,0.00,,,0.00,0.0,meteohub,2013-12-22 01:52:00,
2013-12-21 17:57:00,50.2,46.2,-100.00,WSW,244,0.0,0.0,86,0.00,,,0.00,0.0,meteohub,2013-12-22 01:57:00,
2013-12-21 18:02:00,49.6,45.9,-100.00,WSW,244,0.0,0.0,87,0.00,,,0.00,0.0,meteohub,2013-12-22 02:02:00,
2013-12-21 18:07:00,49.5,45.7,-100.00,WSW,244,0.0,2.0,87,0.00,,,0.00,0.0,meteohub,2013-12-22 02:07:00,
2013-12-21 18:12:00,49.1,45.7,-100.00,WSW,244,0.0,2.0,88,0.00,,,0.00,0.0,meteohub,2013-12-22 02:12:00,
2013-12-21 18:17:00,49.1,46.0,-100.00,WSW,244,0.0,2.0,89,0.00,,,0.00,0.0,meteohub,2013-12-22 02:17:00,
2013-12-21 18:22:00,48.6,44.8,-100.00,WSW,244,0.0,2.0,87,0.00,,,0.00,0.0,meteohub,2013-12-22 02:22:00,
2013-12-21 18:27:00,48.2,45.1,-100.00,WSW,244,0.0,1.0,89,0.00,,,0.00,0.0,meteohub,2013-12-22 02:27:00,
2013-12-21 18:32:00,48.0,45.0,-100.00,WSW,244,0.0,1.0,89,0.00,,,0.00,0.0,meteohub,2013-12-22 02:32:00,
2013-12-21 18:37:00,47.8,45.0,-100.00,WSW,244,0.0,1.0,90,0.00,,,0.00,0.0,meteohub,2013-12-22 02:37:00,
2013-12-21 18:42:00,47.8,45.0,-100.00,WSW,244,0.0,1.0,90,0.00,,,0.00,0.0,meteohub,2013-12-22 02:42:00,
2013-12-21 18:47:00,47.7,45.0,-100.00,WSW,244,0.0,1.0,90,0.00,,,0.00,0.0,meteohub,2013-12-22 02:47:00,
2013-12-21 18:52:00,47.5,44.8,-100.00,WSW,244,0.0,1.0,90,0.00,,,0.00,0.0,meteohub,2013-12-22 02:52:00,
2013-12-21 18:57:00,47.3,44.6,-100.00,WSW,244,0.0,0.0,90,0.00,,,0.00,0.0,meteohub,2013-12-22 02:57:00,
2013-12-21 19:02:00,47.1,44.4,-100.00,WSW,244,0.0,0.0,90,0.00,,,0.00,0.0,meteohub,2013-12-22 03:02:00,
2013-12-21 19:07:00,46.9,44.2,-100.00,WSW,244,0.0,0.0,90,0.00,,,0.00,0.0,meteohub,2013-12-22 03:07:00,
2013-12-21 19:12:00,46.6,43.9,-100.00,WSW,244,0.0,0.0,90,0.00,,,0.00,0.0,meteohub,2013-12-22 03:12:00,
2013-12-21 19:17:00,46.2,43.7,-100.00,WSW,244,0.0,0.0,91,0.00,,,0.00,0.0,meteohub,2013-12-22 03:17:00,
2013-12-21 19:22:00,46.2,43.7,-100.00,WSW,244,0.0,0.0,91,0.00,,,0.00,0.0,meteohub,2013-12-22 03:22:00,
2013-12-21 19:27:00,46.0,43.9,-100.00,WSW,244,0.0,0.0,92,0.00,,,0.00,0.0,meteohub,2013-12-22 03:27:00,
2013-12-21 19:32:00,46.0,43.9,-100.00,WSW,244,0.0,0.0,92,0.00,,,0.00,0.0,meteohub,2013-12-22 03:32:00,
2013-12-21 19:37:00,45.5,43.0,-100.00,WSW,244,0.0,0.0,91,0.00,,,0.00,0.0,meteohub,2013-12-22 03:37:00,
2013-12-21 19:42:00,45.3,43.2,-100.00,WSW,244,0.0,0.0,92,0.00,,,0.00,0.0,meteohub,2013-12-22 03:42:00,
2013-12-21 19:47:00,45.1,43.0,-100.00,WSW,244,0.0,0.0,92,0.00,,,0.00,0.0,meteohub,2013-12-22 03:47:00,
2013-12-21 19:52:00,45.0,42.8,-100.00,WSW,244,0.0,0.0,92,0.00,,,0.00,0.0,meteohub,2013-12-22 03:52:00,
2013-12-21 19:57:00,45.0,42.8,-100.00,WSW,244,0.0,0.0,92,0.00,,,0.00,0.0,meteohub,2013-12-22 03:57:00,
2013-12-21 20:02:00,44.8,42.6,-100.00,WSW,244,0.0,0.0,92,0.00,,,0.00,0.0,meteohub,2013-12-22 04:02:00,
2013-12-21 20:07:00,44.8,42.6,-100.00,WSW,244,0.0,0.0,92,0.00,,,0.00,0.0,meteohub,2013-12-22 04:07:00,
2013-12-21 20:12:00,44.6,42.6,-100.00,WSW,244,0.0,0.0,93,0.00,,,0.00,0.0,meteohub,2013-12-22 04:12:00,
2013-12-21 20:17:00,44.1,41.9,-100.00,WSW,244,0.0,1.0,92,0.00,,,0.00,0.0,meteohub,2013-12-22 04:17:00,
2013-12-21 20:22:00,43.9,41.7,-100.00,WSW,244,0.0,1.0,92,0.00,,,0.00,0.0,meteohub,2013-12-22 04:22:00,
2013-12-21 20:27:00,43.7,41.7,-100.00,WSW,244,0.0,1.0,93,0.00,,,0.00,0.0,meteohub,2013-12-22 04:27:00,
2013-12-21 20:32:00,43.7,41.7,-100.00,WSW,244,0.0,1.0,93,0.00,,,0.00,0.0,meteohub,2013-12-22 04:32:00,
2013-12-21 20:37:00,43.5,41.7,-100.00,WSW,244,0.0,0.0,93,0.00,,,0.00,0.0,meteohub,2013-12-22 04:37:00,
2013-12-21 20:42:00,43.3,41.5,-100.00,WSW,244,0.0,0.0,93,0.00,,,0.00,0.0,meteohub,2013-12-22 04:42:00,
2013-12-21 20:47:00,43.3,41.5,-100.00,WSW,244,0.0,0.0,93,0.00,,,0.00,0.0,meteohub,2013-12-22 04:47:00,
2013-12-21 20:52:00,43.2,41.4,-100.00,WSW,244,0.0,0.0,93,0.00,,,0.00,0.0,meteohub,2013-12-22 04:52:00,
2013-12-21 20:57:00,43.2,41.4,-100.00,WSW,244,0.0,0.0,93,0.00,,,0.00,0.0,meteohub,2013-12-22 04:57:00,
2013-12-21 21:02:00,43.0,41.2,-100.00,WSW,244,0.0,0.0,93,0.00,,,0.00,0.0,meteohub,2013-12-22 05:02:00,
2013-12-21 21:05:00,42.8,41.0,-100.00,WSW,244,0.0,1.0,93,0.00,,,0.00,0.0,meteohub,2013-12-22 05:05:00,
2013-12-21 21:11:00,42.8,41.2,-100.00,WSW,244,0.0,1.0,94,0.00,,,0.00,0.0,meteohub,2013-12-22 05:11:00,
2013-12-21 21:12:00,42.8,41.2,-100.00,WSW,244,0.0,1.0,94,0.00,,,0.00,0.0,meteohub,2013-12-22 05:12:00,
2013-12-21 21:13:00,42.6,40.8,-100.00,WSW,244,0.0,1.0,93,0.00,,,0.00,0.0,meteohub,2013-12-22 05:13:00,
2013-12-21 21:19:00,42.3,40.5,-100.00,WSW,244,0.0,1.0,93,0.00,,,0.00,0.0,meteohub,2013-12-22 05:19:00,
2013-12-21 21:25:00,42.3,40.6,-100.00,WSW,244,0.0,0.0,94,0.00,,,0.00,0.0,meteohub,2013-12-22 05:25:00,
2013-12-21 21:27:00,42.3,40.6,-100.00,WSW,244,0.0,0.0,94,0.00,,,0.00,0.0,meteohub,2013-12-22 05:27:00,
2013-12-21 21:32:00,42.3,40.6,-100.00,WSW,244,0.0,0.0,94,0.00,,,0.00,0.0,meteohub,2013-12-22 05:32:00,
2013-12-21 21:37:00,42.3,40.6,-100.00,WSW,244,0.0,0.0,94,0.00,,,0.00,0.0,meteohub,2013-12-22 05:37:00,
2013-12-21 21:42:00,42.1,40.5,-100.00,WSW,244,0.0,0.0,94,0.00,,,0.00,0.0,meteohub,2013-12-22 05:42:00,
2013-12-21 21:47:00,41.9,40.3,-100.00,WSW,244,0.0,1.0,94,0.00,,,0.00,0.0,meteohub,2013-12-22 05:47:00,
2013-12-21 21:52:00,41.7,40.1,-100.00,WSW,244,0.0,1.0,94,0.00,,,0.00,0.0,meteohub,2013-12-22 05:52:00,
2013-12-21 21:57:00,41.5,39.9,-100.00,WSW,244,0.0,0.0,94,0.00,,,0.00,0.0,meteohub,2013-12-22 05:57:00,
2013-12-21 22:02:00,41.5,39.9,-100.00,WSW,244,0.0,0.0,94,0.00,,,0.00,0.0,meteohub,2013-12-22 06:02:00,
2013-12-21 22:08:00,41.4,39.7,-100.00,WSW,244,0.0,0.0,94,0.00,,,0.00,0.0,meteohub,2013-12-22 06:08:00,
2013-12-21 22:14:00,41.2,39.6,-100.00,SE,138,0.0,2.0,94,0.00,,,0.00,0.0,meteohub,2013-12-22 06:14:00,
2013-12-21 22:20:00,40.8,39.2,-100.00,SE,138,0.0,4.0,94,0.00,,,0.00,0.0,meteohub,2013-12-22 06:20:00,
2013-12-21 22:26:00,40.8,39.2,-100.00,SE,138,0.0,4.0,94,0.00,,,0.00,0.0,meteohub,2013-12-22 06:26:00,
2013-12-21 22:32:00,40.8,39.6,-100.00,SE,138,0.0,4.0,95,0.00,,,0.00,0.0,meteohub,2013-12-22 06:32:00,
2013-12-21 22:37:00,40.8,39.6,-100.00,SE,138,0.0,0.0,95,0.00,,,0.00,0.0,meteohub,2013-12-22 06:37:00,
2013-12-21 22:42:00,40.8,39.6,-100.00,SE,138,0.0,0.0,95,0.00,,,0.00,0.0,meteohub,2013-12-22 06:42:00,
2013-12-21 22:47:00,40.8,39.6,-100.00,SE,138,0.0,0.0,95,0.00,,,0.00,0.0,meteohub,2013-12-22 06:47:00,
2013-12-21 22:53:00,40.6,39.4,-100.00,SE,138,0.0,0.0,95,0.00,,,0.00,0.0,meteohub,2013-12-22 06:53:00,
2013-12-21 22:59:00,40.5,38.8,-100.00,SE,138,0.0,0.0,94,0.00,,,0.00,0.0,meteohub,2013-12-22 06:59:00,
2013-12-21 23:05:00,40.3,38.7,-100.00,SE,138,0.0,0.0,94,0.00,,,0.00,0.0,meteohub,2013-12-22 07:05:00,
2013-12-21 23:11:00,40.1,38.5,-100.00,SE,138,0.0,0.0,94,0.00,,,0.00,0.0,meteohub,2013-12-22 07:11:00,
2013-12-21 23:14:00,39.9,38.3,-100.00,SE,138,0.0,0.0,94,0.00,,,0.00,0.0,meteohub,2013-12-22 07:14:00,
2013-12-21 23:20:00,39.9,38.3,-100.00,SE,138,0.0,0.0,94,0.00,,,0.00,0.0,meteohub,2013-12-22 07:20:00,
2013-12-21 23:26:00,39.7,38.1,-100.00,SE,138,0.0,0.0,94,0.00,,,0.00,0.0,meteohub,2013-12-22 07:26:00,
2013-12-21 23:32:00,39.6,37.9,-100.00,SE,138,0.0,0.0,94,0.00,,,0.00,0.0,meteohub,2013-12-22 07:32:00,
2013-12-21 23:37:00,39.4,37.8,-100.00,SE,138,0.0,0.0,94,0.00,,,0.00,0.0,meteohub,2013-12-22 07:37:00,
2013-12-21 23:42:00,39.4,37.8,-100.00,SE,138,0.0,0.0,94,0.00,,,0.00,0.0,meteohub,2013-12-22 07:42:00,
2013-12-21 23:47:00,39.4,38.1,-100.00,SE,138,0.0,0.0,95,0.00,,,0.00,0.0,meteohub,2013-12-22 07:47:00,
2013-12-21 23:52:00,39.2,37.9,-100.00,SE,138,0.0,0.0,95,0.00,,,0.00,0.0,meteohub,2013-12-22 07:52:00,
2013-12-21 23:57:00,39.0,37.8,-100.00,SE,138,1.0,0.0,95,0.00,,,0.00,0.0,meteohub,2013-12-22 07:57:00,